Probability
0 0 0 0 0 0 0 0 0 0 0 0 0 0 0 0 0 0 0 0 0 0 0 0 0 0 0 0 0 0 0 0 0 0 0 0 0 0 0 0 0 0 0 0
0 0 0 0 0 0 0 0 0 0 0 0 0 0 0 0 0 0 0 0 0 0 0 0 0 0 0 0 0 0 0 0 0 0 0 0 0 0 0 0 0 0 0 0
0 0 0 0 0 0 0 0 0 0 0 0 0 0 0 0 0 0 0 0 0 0 0 0 0 0 0 0 0 0 0 0 0 0 0 0 0 0 0 0 0 0 0 0
0 0 0 0 0 0 0 0 0 0 0 0 0 0 0 0 0 0 0 0 0 0 0 0 0 0 0 0 0 0 0 0 0 0 0 0 0 0 0 0 0 0 0 0
0 0 0 0 0 0 0 0 0 0 0 0 0 0 0 0 0 0 0 0 0 0 0 0 0 0 0 0 0 0 0 0 0 0 0 0 0 0 0 0 0 0 0 0
0 0 0 0 0 0 0 0 0 0 0 0 0 0 0 0 0 0 0 0 0 0 0 0 0 0 0 0 0 0 0 0 0 0 0 0 0 0 0 0 0 0 0 0
0 0 0 0 0 0 0 0 0 0 0 0 0 0 0 0 0 0 0 0 0 0 0 0 0 0 0 0 0 0 0 0 0 0 0 0 0 0 0 0 0 0 0 0
0 0 0 0 0 0 0 0 0 0 0 0 0 0 0 0 0 0 0 0 0 0 0 0 0 0 0 0 0 0 0 0 0 0 0 0 0 0 0 0 0 0 0 0
0 0 0 0 0 0 0 0 0 0 0 0 0 0 0 0 0 0 0 0 0 0 0 0 0 0 0 0 0 0 0 0 0 0 0 0 0 0 0 0 0 0 0 0
0 0 0 0 0 0 0 0 0 0 0 0 0 0 0 0 0 0 0 0 0 0 0 0 0 0 0 0 0 0 0 0 0 0 0 0 0 0 0 0 0 0 0 0
0 0 0 0 0 0 0 0 0 0 0 0 0 0 0 0 0 0 0 0 0 0 0 0 0 0 0 0 0 0 0 0 0 0 0 0 0 0 0 0 0 0 0 0
0 0 0 0 0 0 0 0 0 0 0 0 0 0 0 0 0 0 0 0 0 0 0 0 0 0 0 0 0 0 0 0 0 0 0 0 0 0 0 0 0 0 0 0
0 0 0 0 0 0 0 0 0 0 0 0 0 0 0 0 0 0 0 0 0 0 0 0 0 0 0 0 0 0 0 0 0 0 0 0 0 0 0 0 0 0 0 0
0 0 0 0 0 0 0 0 0 0 0 0 0 0 0 0 0 0 0 0 0 0 0 0 0 0 0 0 0 0 0 0 0 0 0 0 0 0 0 0 0 0 0 0
0 0 0 0 0 0 0 0 0 0 0 0 0 0 0 0 0 0 0 0 0 0 0 0 0 0 0 0 0 0 0 0 0 0 0 0 0 0 0 0 0 0 0 0
0 0 0 0 0 0 0 0 0 0 0 0 0 0 0 0 0 0 0 0 0 0 0 0 0 0 0 0 0 0 0 0 0 0 0 0 0 0 0 0 0 0 0 0
0 0 0 0 0 0 0 0 0 0 0 0 0 0 0 0 0 0 0 0 0 0 0 0 0 0 0 0 0 0 0 0 0 0 0 0 0 0 0 0 0 0 0 0
0 0 0 0 0 0 0 0 0 0 0 0 0 0 0 0 0 0 0 0 0 0 0 0 0 0 0 0 0 0 0 0 0 0 0 0 0 0 0 0 0 0 0 0
0 0 0 0 0 0 0 0 0 0 0 0 0 0 0 0 0 0 0 0 0 0 0 0 0 0 0 0 0 0 0 0 0 0 0 0 0 0 0 0 0 0 0 0
0 0 0 0 0 0 0 0 0 0 0 0 0 0 0 0 0 0 0 0 0 0 0 0 0 0 0 0 0 0 0 0 0 0 0 0 0 0 0 0 0 0 0 0
0 0 0 0 0 0 0 0 0 0 0 0 0 0 0 0 0 0 0 0 0 0 0 0 0 0 0 0 0 0 0 0 0 0 0 0 0 0 0 0 0 0 0 0
0 0 0 0 0 0 0 0 0 0 0 0 0 0 0 0 0 0 0 0 0 0 0 0 0 0 0 0 0 0 0 0 0 0 0 0 0 0 0 0 0 0 0 0
0 0 0 0 0 0 0 0 0 0 0 0 0 0 0 0 0 0 0 0 0 0 0 0 0 0 0 0 0 0 0 0 0 0 0 0 0 0 0 0 0 0 0 0
0 0 0 0 0 0 0 0 0 0 0 0 0 0 0 0 0 0 0 0 0 0 0 0 0 0 0 0 0 0 0 0 0 0 0 0 0 0 0 0 0 0 0 0
0 0 0 0 0 0 0 0 0 0 0 0 0 0 0 0 0 0 0 0 0 0 0 0 0 0 0 0 0 0 0 0 0 0 0 0 0 0 0 0 0 0 0 0
0 0 0 0 0 0 0 0 0 0 0 0 0 0 0 0 0 0 0 0 0 0 0 0 0 0 0 0 0 0 0 0 0 0 0 0 0 0 0 0 0 0 0 0
0 0 0 0 0 0 0 0 0 0 0 0 0 0 0 0 0 0 0 0 0 0 0 0 0 0 0 0 0 0 0 0 0 0 0 0 0 0 0 0 0 0 0 0
Height
5575 5573 5570 5568 5566 5563 5561 5559 5558 5557 5556 5556 5556 5555 5556 5556 5556 5556 5556 5557 5558 5560 5562 5564 5566 5568 5571 5573 5576 5579 5582 5585 5588 5591 5595 5598 5602 5605 5609 5613 5616 5620 5624 5627
5572 5569 5566 5564 5562 5559 5557 5554 5552 5551 5551 5550 5549 5548 5548 5548 5548 5548 5548 5549 5549 5550 5552 5554 5555 5558 5560 5562 5565 5567 5570 5573 5576 5579 5582 5585 5589 5592 5596 5599 5602 5606 5610 5613
5568 5565 5561 5560 5557 5554 5552 5549 5548 5546 5545 5543 5542 5542 5541 5540 5540 5540 5540 5540 5540 5541 5542 5544 5545 5547 5549 5551 5553 5556 5558 5561 5564 5567 5570 5573 5575 5578 5582 5585 5589 5592 5596 5599
5563 5560 5557 5557 5552 5549 5547 5545 5542 5540 5538 5537 5536 5534 5533 5532 5531 5531 5531 5531 5531 5532 5532 5533 5534 5536 5538 5540 5542 5544 5546 5549 5552 5554 5557 5560 5562 5565 5568 5571 5575 5578 5582 5585
5557 5554 5551 5551 5547 5544 5541 5540 5537 5534 5532 5530 5529 5527 5526 5525 5524 5523 5522 5522 5522 5522 5523 5523 5524 5526 5527 5529 5530 5532 5535 5537 5539 5542 5545 5547 5550 5552 5555 5558 5561 5564 5568 5571
5552 5548 5546 5545 5541 5538 5536 5534 5531 5528 5526 5524 5522 5521 5520 5517 5516 5515 5514 5514 5513 5513 5514 5514 5515 5516 5517 5518 5520 5522 5523 5525 5527 5530 5532 5535 5537 5540 5542 5544 5547 5551 5554 5558
5547 5542 5540 5538 5534 5532 5531 5529 5525 5522 5520 5518 5515 5514 5512 5510 5509 5507 5506 5506 5505 5505 5505 5505 5505 5506 5507 5508 5509 5510 5512 5514 5516 5518 5520 5523 5525 5527 5530 5532 5535 5538 5542 5545
5540 5537 5536 5531 5528 5526 5524 5520 5518 5515 5513 5511 5509 5506 5504 5503 5501 5500 5499 5498 5498 5497 5497 5496 5496 5496 5497 5498 5498 5499 5500 5502 5505 5506 5509 5511 5513 5515 5518 5520 5522 5525 5528 5532
5535 5534 5529 5524 5521 5519 5516 5514 5511 5508 5506 5504 5502 5499 5497 5496 5494 5493 5492 5491 5490 5489 5488 5488 5488 5487 5488 5488 5488 5489 5490 5492 5493 5496 5498 5500 5502 5504 5507 5508 5511 5513 5516 5519
5528 5526 5522 5518 5515 5513 5510 5507 5504 5502 5499 5497 5495 5493 5491 5489 5487 5486 5484 5483 5482 5481 5480 5480 5479 5479 5479 5479 5479 5479 5481 5482 5484 5486 5488 5490 5492 5494 5496 5498 5499 5502 5504 5507
5522 5519 5516 5513 5509 5506 5503 5500 5498 5495 5493 5490 5488 5486 5484 5482 5480 5479 5477 5476 5474 5473 5472 5471 5471 5470 5470 5470 5471 5471 5472 5474 5475 5477 5479 5480 5482 5484 5485 5487 5488 5491 5494 5496
5517 5513 5510 5507 5504 5501 5498 5495 5492 5489 5487 5484 5482 5480 5477 5475 5473 5471 5470 5468 5467 5465 5464 5464 5463 5463 5463 5463 5463 5464 5465 5466 5467 5469 5470 5471 5473 5474 5475 5477 5479 5481 5484 5486
5510 5507 5503 5500 5497 5494 5491 5489 5486 5483 5480 5478 5475 5473 5471 5469 5466 5464 5462 5461 5459 5458 5457 5456 5456 5456 5456 5456 5456 5457 5458 5459 5460 5461 5462 5463 5464 5466 5467 5469 5470 5472 5474 5476
5504 5501 5498 5494 5491 5488 5485 5482 5480 5477 5474 5471 5469 5466 5464 5461 5459 5457 5455 5454 5452 5451 5450 5450 5449 5449 5449 5450 5450 5450 5451 5452 5453 5453 5454 5455 5456 5458 5459 5461 5462 5464 5466 5467
5498 5495 5492 5488 5485 5482 5479 5476 5473 5471 5468 5465 5462 5459 5457 5454 5452 5450 5448 5447 5445 5444 5443 5443 5443 5443 5443 5443 5444 5444 5444 5445 5446 5446 5447 5448 5449 5450 5452 5453 5455 5456 5457 5459
5492 5489 5485 5482 5479 5476 5473 5470 5467 5464 5461 5458 5456 5453 5450 5448 5445 5443 5441 5440 5439 5438 5437 5436 5436 5436 5436 5436 5437 5437 5438 5438 5439 5440 5440 5441 5442 5443 5444 5446 5447 5448 5449 5450
5485 5482 5479 5476 5473 5469 5466 5464 5461 5458 5455 5452 5449 5446 5444 5441 5439 5437 5435 5434 5432 5431 5430 5430 5429 5429 5429 5430 5430 5430 5431 5431 5432 5433 5433 5434 5435 5436 5437 5438 5439 5440 5441 5442
5479 5476 5473 5469 5466 5463 5460 5457 5454 5451 5448 5446 5443 5440 5437 5435 5433 5431 5429 5427 5426 5425 5424 5423 5423 5423 5423 5423 5423 5424 5424 5424 5425 5426 5426 5427 5428 5429 5429 5430 5431 5432 5433 5434
5472 5469 5466 5462 5459 5456 5453 5450 5447 5444 5442 5439 5436 5434 5431 5429 5427 5425 5423 5421 5420 5419 5418 5417 5417 5416 5417 5417 5417 5417 5417 5418 5418 5419 5419 5420 5421 5421 5422 5423 5423 5424 5425 5426
5465 5462 5459 5455 5452 5449 5446 5443 5440 5438 5435 5432 5430 5427 5425 5422 5420 5419 5417 5415 5414 5413 5412 5411 5410 5410 5410 5410 5411 5411 5411 5411 5411 5412 5412 5413 5413 5414 5414 5415 5415 5416 5417 5418
5458 5455 5451 5448 5445 5442 5439 5436 5433 5431 5428 5425 5423 5420 5418 5416 5414 5412 5410 5409 5407 5406 5405 5404 5404 5404 5403 5404 5404 5404 5404 5404 5405 5405 5405 5405 5406 5406 5406 5407 5407 5408 5408 5409
5451 5447 5444 5441 5438 5435 5432 5429 5426 5423 5421 5418 5416 5413 5411 5409 5407 5405 5403 5402 5401 5399 5399 5398 5397 5397 5397 5397 5397 5397 5398 5398 5398 5398 5398 5398 5398 5398 5399 5399 5399 5399 5400 5401
5443 5440 5437 5433 5430 5427 5424 5422 5419 5416 5414 5411 5408 5406 5403 5401 5399 5398 5396 5395 5393 5392 5392 5391 5390 5390 5390 5390 5390 5391 5391 5391 5391 5391 5391 5391 5391 5391 5391 5391 5391 5391 5391 5392
5435 5432 5429 5426 5423 5420 5417 5414 5411 5409 5406 5404 5401 5398 5396 5394 5392 5390 5388 5387 5386 5385 5384 5383 5383 5383 5383 5383 5383 5383 5384 5384 5384 5384 5383 5383 5383 5383 5383 5382 5382 5383 5383 5383
5428 5424 5421 5418 5415 5413 5410 5407 5404 5401 5399 5396 5393 5391 5388 5386 5385 5383 5381 5379 5378 5377 5377 5376 5376 5376 5376 5376 5376 5376 5376 5376 5376 5376 5375 5375 5375 5375 5375 5374 5374 5374 5374 5375
5420 5417 5414 5411 5408 5405 5402 5399 5397 5394 5391 5388 5386 5383 5381 5379 5377 5375 5373 5372 5371 5370 5369 5368 5368 5368 5368 5368 5368 5368 5368 5368 5367 5367 5367 5367 5367 5367 5366 5366 5366 5366 5366 5367
5412 5409 5406 5403 5400 5397 5394 5391 5389 5386 5383 5381 5378 5376 5374 5371 5369 5367 5366 5364 5363 5362 5361 5361 5360 5360 5360 5360 5360 5359 5359 5359 5359 5359 5359 5359 5358 5358 5358 5358 5358 5358 5358 5359
Wind_Speed
19 19 19 18 17 18 19 20 22 22 23 23 24 25 26 26 26 27 28 30 34 36 37 37 38 40 41 42 43 43 44 46 47 47 48 49 50 50 50 50 50 50 50 50
20 20 20 19 18 18 19 19 20 21 21 22 24 25 26 27 28 29 30 30 31 34 36 37 38 39 40 41 42 43 44 44 45 46 46 48 49 49 50 50 50 51 51 51
20 20 20 20 19 20 20 19 20 20 20 21 22 24 25 26 27 28 30 30 31 32 35 37 38 39 39 40 40 42 43 44 45 45 45 46 47 48 49 50 50 51 51 52
22 21 20 19 19 20 21 21 22 22 22 22 22 23 24 26 28 28 28 30 30 31 32 34 36 37 39 39 39 39 40 41 43 44 45 46 46 47 48 49 50 51 51 51
24 24 23 20 20 20 20 21 22 22 23 23 23 23 23 25 26 26 27 27 28 29 31 32 34 35 36 37 38 39 39 40 41 43 43 43 44 45 46 48 49 49 50 50
25 25 24 23 22 21 21 21 21 22 23 22 23 23 22 23 24 25 26 26 26 27 28 30 32 34 35 36 38 38 39 40 40 41 42 43 43 44 45 46 47 48 48 49
25 25 24 24 23 23 23 23 23 23 23 22 23 23 23 23 24 24 25 25 26 26 26 28 30 31 33 35 36 37 38 39 40 40 41 41 42 42 43 44 45 46 47 48
26 26 25 24 23 23 23 23 23 24 23 23 23 23 24 24 24 24 24 25 26 26 27 27 28 30 31 32 34 35 36 38 38 39 39 40 40 41 41 42 43 44 45 46
27 26 25 24 24 23 23 23 23 23 23 23 23 23 24 24 24 24 24 25 26 26 27 27 27 28 29 31 32 34 34 35 36 36 36 37 37 38 39 40 41 42 44 44
27 25 24 24 23 23 23 23 23 23 22 22 22 22 22 23 23 24 24 24 25 25 26 26 27 26 27 28 29 30 32 33 34 34 35 35 36 37 37 38 39 40 41 42
26 25 23 22 22 22 22 22 22 22 22 22 22 22 22 22 22 23 24 24 24 25 25 25 26 26 26 26 27 27 28 30 31 32 33 34 35 36 36 36 36 37 38 39
26 24 23 21 21 22 22 22 22 22 22 22 22 21 22 22 22 23 24 24 25 25 25 24 25 25 25 25 25 25 26 27 28 29 30 31 32 32 33 33 33 33 34 36
25 23 23 22 22 22 22 22 22 22 21 21 22 22 22 22 22 22 23 23 23 23 23 23 23 24 24 23 23 24 24 26 26 26 26 27 28 29 30 31 31 32 32 33
24 23 22 22 22 22 22 22 22 22 22 22 22 22 22 22 22 21 21 21 21 21 21 21 22 22 22 22 22 23 23 24 25 25 25 25 26 27 28 28 28 29 31 32
24 23 23 23 23 23 23 23 22 22 22 22 22 22 22 21 21 21 21 20 20 20 20 20 21 21 22 22 22 22 22 23 23 24 24 24 25 26 26 27 27 28 29 30
24 24 24 24 23 23 23 22 22 22 23 23 22 22 22 21 21 20 20 19 19 19 19 20 20 21 21 22 22 22 23 23 23 23 24 24 24 25 25 26 26 27 28 29
24 24 24 23 22 22 23 23 23 23 23 23 22 22 21 21 20 20 19 19 19 19 19 19 20 20 21 21 22 22 22 23 23 23 23 23 24 24 25 26 26 27 27 28
24 24 24 23 23 23 23 23 23 23 23 22 22 22 21 21 20 19 19 19 19 19 19 19 19 20 20 20 21 21 22 22 22 22 22 23 23 24 24 25 26 27 28 28
24 24 24 24 25 24 24 24 23 23 22 22 22 22 21 21 20 19 19 19 19 18 19 19 20 20 20 20 20 21 21 21 21 21 22 23 23 24 25 25 25 26 26 27
25 25 25 25 25 25 24 24 24 23 23 23 23 22 21 21 20 20 20 19 19 19 19 20 20 20 20 20 20 20 20 21 21 21 22 22 23 24 25 25 26 26 26 27
25 25 26 26 25 25 25 24 24 24 24 24 23 23 22 21 21 21 21 21 20 20 19 19 19 20 20 20 20 20 20 20 21 21 22 22 23 23 24 25 26 26 26 26
26 26 26 26 26 25 25 25 24 24 24 24 24 24 23 23 22 22 22 22 21 21 20 20 20 20 20 20 20 20 20 21 21 21 21 22 23 23 24 25 25 26 26 26
26 26 26 26 26 25 25 25 25 25 25 25 24 24 24 23 23 22 22 22 21 21 21 21 21 21 20 20 20 21 21 21 21 21 22 22 23 23 23 24 24 25 26 26
27 27 26 26 25 25 25 25 25 25 25 25 24 24 23 23 23 22 22 22 21 21 21 21 21 22 22 21 21 21 21 22 22 22 22 22 22 22 22 23 24 24 25 25
27 27 26 26 25 25 25 25 25 25 25 25 24 24 23 23 23 23 22 22 21 21 22 22 22 22 22 22 22 22 22 22 23 23 23 23 23 23 23 23 23 24 24 24
27 26 26 26 25 25 25 25 25 25 25 24 24 23 23 23 23 23 23 22 22 22 22 22 22 23 23 23 23 23 23 23 24 24 24 24 24 24 24 23 23 24 24 24
26 26 26 25 25 25 25 25 25 25 24 24 23 23 23 22 23 23 22 22 22 22 22 22 22 22 23 23 23 23 23 23 24 24 24 24 24 24 24 24 23 23 24 24
Wind_Direction
310 310 306 304 298 292 289 285 280 279 277 272 270 269 266 264 263 261 258 253 248 246 246 246 245 245 246 246 246 246 246 246 246 246 245 245 245 246 247 248 248 248 248 249
313 311 308 306 299 295 294 290 287 283 280 274 272 271 268 265 264 262 260 257 253 250 248 248 247 247 246 246 246 246 246 247 246 246 246 246 246 246 247 247 248 248 249 249
315 311 307 306 303 297 294 295 291 289 285 279 275 272 271 268 265 265 262 259 256 255 253 250 249 248 247 247 246 247 248 247 247 247 248 248 248 248 248 247 248 248 249 249
315 312 309 309 305 300 297 296 294 292 290 284 279 276 273 270 268 267 265 263 261 259 256 254 252 250 249 249 249 249 249 248 248 248 249 250 251 250 249 248 248 248 248 249
317 314 312 309 305 304 301 298 295 294 293 289 285 280 277 273 270 269 266 266 262 260 260 257 255 253 252 251 251 251 251 250 250 250 250 251 251 251 250 250 249 248 248 249
315 312 311 307 302 301 301 298 295 294 293 290 287 284 281 276 273 271 269 267 265 262 261 260 258 256 255 253 252 252 251 251 252 253 252 252 252 252 252 251 250 249 249 249
314 312 311 308 303 299 298 297 295 293 292 291 289 287 283 278 274 272 269 268 266 264 263 261 260 259 257 255 255 254 253 252 252 252 251 252 252 252 252 252 251 250 250 250
314 313 311 310 306 300 298 298 296 294 292 291 290 288 286 281 277 274 270 269 268 267 265 263 262 261 259 257 256 255 253 251 251 251 251 251 252 252 252 252 251 250 250 250
312 311 309 307 306 303 300 299 298 298 295 293 292 291 288 284 280 277 274 273 271 270 268 266 265 263 262 260 258 255 254 252 250 250 250 251 251 251 252 253 252 251 250 250
313 310 308 306 305 304 302 300 299 299 298 296 293 291 290 287 283 279 277 277 276 273 271 269 267 265 263 260 258 255 253 251 250 250 251 251 252 252 253 253 253 252 250 249
314 312 309 307 304 304 305 302 299 298 298 297 295 293 290 287 284 281 279 278 277 276 274 270 268 265 263 261 258 255 252 250 250 251 251 252 252 253 253 253 252 250 250 249
314 313 311 309 305 304 305 304 301 299 299 297 296 294 291 289 287 284 281 279 278 276 273 269 266 264 262 261 259 256 253 252 252 253 253 253 253 252 252 251 251 250 250 249
314 312 310 311 309 306 305 304 303 300 299 298 298 296 293 291 290 288 285 282 279 277 273 269 266 263 260 258 256 254 254 253 252 253 253 253 251 250 251 251 251 250 251 251
313 312 310 310 309 307 305 304 304 301 300 299 299 298 295 293 292 291 288 284 281 277 272 268 265 263 259 258 257 257 257 256 256 256 255 253 252 251 250 250 250 249 250 252
311 311 310 309 308 308 307 306 304 303 301 300 299 297 296 294 292 291 289 285 281 277 273 270 266 264 260 258 258 258 258 259 259 258 256 254 252 251 251 250 250 249 250 251
310 310 309 309 308 307 307 306 305 305 304 302 300 299 297 295 293 290 289 286 281 277 274 271 267 265 263 260 259 259 259 261 260 258 257 256 253 252 251 249 249 250 252 252
309 309 310 309 309 308 306 306 305 304 304 303 301 299 297 296 294 291 287 285 282 278 275 271 268 267 265 262 261 262 261 260 259 257 256 256 255 254 252 251 250 251 252 254
309 310 310 310 309 308 306 305 305 304 304 303 303 299 297 295 293 291 288 286 283 279 274 270 268 268 265 263 262 261 259 258 257 256 255 255 255 255 254 253 252 252 253 254
309 310 310 309 308 307 305 304 304 303 303 303 303 302 298 295 292 291 290 287 284 280 275 271 269 268 265 262 261 259 258 258 257 257 257 257 257 258 256 255 254 254 254 254
309 309 309 308 308 306 305 304 303 302 302 302 302 302 299 296 293 290 289 286 284 281 277 275 272 268 264 262 261 260 259 259 258 258 258 259 261 260 259 258 257 256 256 255
309 309 309 308 307 306 305 304 303 302 301 301 300 299 298 296 293 290 288 286 283 280 278 275 272 268 264 263 264 263 260 260 260 260 261 262 263 261 260 259 258 257 256 256
308 308 308 308 306 305 304 303 303 301 300 300 300 298 296 295 293 290 287 285 283 279 277 275 273 269 266 265 265 265 263 262 261 261 262 263 263 263 262 260 259 257 256 255
307 307 307 307 306 305 304 303 302 301 300 299 298 298 296 294 292 289 286 285 283 279 276 274 271 269 267 266 265 265 264 263 262 262 264 264 265 265 264 262 260 259 257 257
307 307 306 306 305 304 304 304 303 301 300 299 298 297 296 294 292 290 287 284 282 279 275 272 270 269 267 266 266 265 265 264 264 264 266 266 266 266 265 264 263 261 260 258
307 307 306 306 305 304 303 303 303 302 301 300 298 296 294 293 292 290 287 284 282 280 276 274 271 269 267 266 266 266 266 266 265 265 266 266 266 267 268 267 265 262 261 259
308 307 306 306 305 305 304 304 303 303 302 300 298 296 293 291 290 289 286 284 282 280 277 274 272 271 269 267 267 268 268 267 266 266 267 267 267 268 268 267 265 263 262 261
309 308 307 307 306 306 305 304 303 302 301 299 297 296 294 292 290 288 286 284 280 278 277 274 272 272 271 269 269 268 268 268 268 267 267 267 267 267 267 266 265 264 262 261